Erzurum, Turkey

8:32 PM +03 on December 14, 2017 (GMT +0300)
Erzurum

Weather History for LTCE - October, 2013

Change the Weather History Date:

Monday, October 7, 2013

  Actual Average Record
Temperature  
Mean Temperature 34 °F -  
Max Temperature 46 °F 55 °F 73 °F (2003)
Min Temperature 23 °F 34 °F 23 °F (1996)
Degree Days  
Heating Degree Days 30    
Moisture  
Dew Point 25 °F    
Average Humidity 69    
Maximum Humidity 100    
Minimum Humidity 26    
Precipitation  
Precipitation 0.00 in 0.06 in - ()
Sea Level Pressure  
Sea Level Pressure 30.23 in    
Wind  
Wind Speed 5 mph ()    
Max Wind Speed 17 mph    
Max Gust Speed -    
Visibility 6.9 miles    
Events      
Averages and records for this station are not official NWS values.
T = Trace of Precipitation, MM = Missing Value Source: Averaged Metar Reports

Daily Weather History Graph

Daily Weather History Graph

Search for Another Location

Airport or City:

Trip Planner

Search our weather history database for the weather conditions in past years. The results will help you decide how hot, cold, wet, or windy it might be!

Date:

Astronomy

Oct. 07, 2013 Rise Set
Actual Time 6:17 AM EEST 5:48 PM EEST
Civil Twilight 5:50 AM EEST 6:15 PM EEST
Nautical Twilight 5:19 AM EEST 6:46 PM EEST
Astronomical Twilight 4:47 AM EEST 7:17 PM EEST
Moon 8:43 AM EEST (10/7) 7:16 PM EEST (10/7)
Length of Visible Light 12h 24m
Length of Day
11h 30m
Waxing Crescent, 7% of the Moon is Illuminated
Oct 7
Waxing Crescent
Oct 12
First Quarter
Oct 19
Full
Oct 27
Last Quarter
Nov 3
New

Hourly Weather History & Observations

Time (EEST) Temp. Windchill Dew Point Humidity Pressure Visibility Wind Dir Wind Speed Gust Speed Precip Events Conditions
12:20 AM 28.4 °F 23.3 °F 26.6 °F 93% 30.18 in 6.2 mi West 4.6 mph - N/A   Partly Cloudy
12:50 AM 28.4 °F - 26.6 °F 93% 30.18 in - Variable 2.3 mph - N/A   Clear
1:20 AM 26.6 °F - 24.8 °F 93% 30.18 in - Variable 2.3 mph - N/A   Clear
1:50 AM 26.6 °F - 24.8 °F 93% 30.18 in - Calm Calm - N/A   Clear
2:20 AM 26.6 °F - 24.8 °F 93% 30.18 in - Calm Calm - N/A   Clear
2:50 AM 26.6 °F - 24.8 °F 93% 30.18 in - Variable 1.2 mph - N/A   Clear
3:00 AM 26 °F - 25 °F 94%  in 12 mi ESE 1.2 mph - -  
3:20 AM 26.6 °F - 24.8 °F 93% 30.18 in - West 2.3 mph - N/A   Clear
3:50 AM 26.6 °F - 24.8 °F 93% 30.18 in - Variable 1.2 mph - N/A   Clear
4:20 AM 24.8 °F - 23.0 °F 93% 30.18 in - Calm Calm - N/A   Clear
4:50 AM 24.8 °F - 23.0 °F 93% 30.18 in - Variable 1.2 mph - N/A   Clear
5:20 AM 24.8 °F - 23.0 °F 93% 30.21 in - Variable 1.2 mph - N/A   Clear
5:50 AM 24.8 °F - 24.8 °F 100% 30.21 in - South 2.3 mph - N/A   Clear
6:20 AM 24.8 °F - 24.8 °F 100% 30.21 in - Variable 2.3 mph - N/A   Clear
6:50 AM 24.8 °F 19.1 °F 23.0 °F 93% 30.21 in - NNW 4.6 mph - N/A   Clear
7:20 AM 26.6 °F - 26.6 °F 100% 30.24 in 6.2 mi WNW 1.2 mph - N/A   Partly Cloudy
7:50 AM 28.4 °F - 26.6 °F 93% 30.24 in 6.2 mi Variable 2.3 mph - N/A   Partly Cloudy
8:20 AM 30.2 °F - 26.6 °F 86% 30.24 in 6.2 mi Variable 2.3 mph - N/A   Partly Cloudy
8:50 AM 33.8 °F 30.8 °F 28.4 °F 81% 30.24 in 6.2 mi NE 3.5 mph - N/A   Partly Cloudy
9:00 AM 34 °F - 28 °F 70%  in 12 mi NNE 1.2 mph - -   Scattered Clouds
9:20 AM 35.6 °F - 26.6 °F 70% 30.24 in 6.2 mi Variable 2.3 mph - N/A   Partly Cloudy
9:50 AM 37.4 °F 34.9 °F 28.4 °F 70% 30.24 in 6.2 mi Variable 3.5 mph - N/A   Scattered Clouds
10:20 AM 41.0 °F 33.5 °F 24.8 °F 53% 30.24 in 6.2 mi NE 13.8 mph - N/A   Scattered Clouds
10:50 AM 41.0 °F 32.5 °F 24.8 °F 53% 30.24 in 6.2 mi ENE 17.3 mph - N/A   Scattered Clouds
11:20 AM 41.0 °F 35.8 °F 26.6 °F 57% 30.24 in 6.2 mi WNW 8.1 mph - N/A   Mostly Cloudy
11:50 AM 39.2 °F 35.9 °F 26.6 °F 61% 30.24 in 6.2 mi SW 4.6 mph - N/A   Mostly Cloudy
12:20 PM 42.8 °F 36.6 °F 23.0 °F 46% 30.21 in 6.2 mi East 11.5 mph - N/A   Mostly Cloudy
12:50 PM 42.8 °F 36.6 °F 23.0 °F 46% 30.21 in 6.2 mi East 11.5 mph - N/A   Mostly Cloudy
1:20 PM 42.8 °F 37.0 °F 23.0 °F 46% 30.21 in 6.2 mi ENE 10.4 mph - N/A   Mostly Cloudy
1:50 PM 44.6 °F 38.8 °F 23.0 °F 43% 30.21 in 6.2 mi ENE 11.5 mph - N/A   Mostly Cloudy
2:20 PM 44.6 °F 37.8 °F 23.0 °F 43% 30.21 in 6.2 mi ENE 15.0 mph - N/A   Mostly Cloudy
2:50 PM 44.6 °F 37.4 °F 23.0 °F 43% 30.21 in 6.2 mi NE 16.1 mph - N/A   Mostly Cloudy
3:00 PM 45 °F - 21 °F 26%  in 12 mi NE 15.0 mph - -   Partly Cloudy
3:20 PM 44.6 °F 37.8 °F 23.0 °F 43% 30.21 in 6.2 mi NE 15.0 mph - N/A   Mostly Cloudy
3:50 PM 46.4 °F 39.8 °F 23.0 °F 40% 30.21 in 6.2 mi NE 16.1 mph - N/A   Mostly Cloudy
4:20 PM 44.6 °F 37.8 °F 23.0 °F 43% 30.21 in 6.2 mi NNE 15.0 mph - N/A   Mostly Cloudy
4:50 PM 42.8 °F 35.8 °F 23.0 °F 46% 30.24 in 6.2 mi NNE 13.8 mph - N/A   Mostly Cloudy
5:20 PM 41.0 °F 34.7 °F 23.0 °F 49% 30.24 in 6.2 mi NNE 10.4 mph - N/A   Mostly Cloudy
5:50 PM 39.2 °F 34.2 °F 23.0 °F 52% 30.24 in 6.2 mi NNE 6.9 mph - N/A   Mostly Cloudy
6:20 PM 37.4 °F 33.8 °F 23.0 °F 56% 30.24 in 6.2 mi NE 4.6 mph - N/A   Scattered Clouds
6:50 PM 35.6 °F 30.7 °F 23.0 °F 60% 30.24 in 6.2 mi North 5.8 mph - N/A   Scattered Clouds
7:20 PM 35.6 °F 32.8 °F 23.0 °F 60% 30.27 in 6.2 mi NNE 3.5 mph - N/A   Scattered Clouds
7:50 PM 35.6 °F 30.7 °F 24.8 °F 65% 30.27 in - NE 5.8 mph - N/A   Clear
8:20 PM 37.4 °F 32.1 °F 24.8 °F 60% 30.27 in - NE 6.9 mph - N/A   Clear
8:50 PM 35.6 °F 29.9 °F 24.8 °F 65% 30.27 in 6.2 mi East 6.9 mph - N/A   Scattered Clouds
9:00 PM 36 °F - 24 °F 50%  in 12 mi East 6.9 mph - -   Partly Cloudy
9:20 PM 35.6 °F - 24.8 °F 65% 30.27 in 6.2 mi Variable 2.3 mph - N/A   Scattered Clouds
9:50 PM 35.6 °F 32.8 °F 24.8 °F 65% 30.27 in 6.2 mi East 3.5 mph - N/A   Scattered Clouds
10:20 PM 35.6 °F 29.9 °F 24.8 °F 65% 30.27 in - NE 6.9 mph - N/A   Clear
10:50 PM 35.6 °F 30.7 °F 24.8 °F 65% 30.27 in - East 5.8 mph - N/A   Clear
11:20 PM 35.6 °F 27.5 °F 24.8 °F 65% 30.27 in - East 11.5 mph - N/A   Clear
11:50 PM 35.6 °F 26.2 °F 24.8 °F 65% 30.27 in - ENE 15.0 mph - N/A   Clear